Верхнеколымск

Россия / Республика Саха (Якутия)     65°43′02″N   150°49′58″E
темп.,
°C
ветер,
м/с
пор.,
м/с
влажн.,
%
обл.,
%
осадки,
мм/ч
давл.,
гПа
погр.,
м
3 марта, ср
ср323:00−36ю129892 0.0 102719
02:00−35ююв1297100 0.0 102519
05:00−34ююз1197100 0.0 102524
08:00−33в1199100 0.2 102420
11:00−32вюв0091100 0.4 1022232
14:00−31с1183100 0.0 1020362
17:00−32с2392100 0.1 101831
20:00−36ссз449413 0.0 101728
4 марта, чт
чт423:00−37ссз579538 0.0 1016100
02:00−35ссз71194100 0.1 1014332
05:00−35ссз91395100 0.2 1011413
08:00−35ссз101496100 0.3 1009454
11:00−33ссз121694100 0.6 1005630
14:00−32сз131793100 0.3 1002743
17:00−31сз141994100 0.7 1000721
20:00−30сз142193100 0.4 1000847
5 марта, пт
пт523:00−28сз152192100 0.8 9981051
02:00−27сз152191100 0.3 9971168
05:00−25сз142090100 0.6 9971128
08:00−25сз141989100 0.3 9971109
11:00−24сз141788100 0.4 9981198
14:00−25сз141887100 0.1 9991113
17:00−25сз141983100 0.2 1001852
20:00−26сз142285100 0.1 1003690
6 марта, сб
сб623:00−27сз152287100 0.1 1004665
02:00−26сз152287100 0.1 1006668
05:00−26сз152290100 0.2 1006665
08:00−26сз152189100 0.2 1007782
11:00−26сз151991100 0.4 1007926
14:00−25сз151992100 0.4 1006946
17:00−25сз131792100 0.8 10061107
20:00−25сз121793100 0.3 1007952
7 марта, вс
вс723:00−25сз121795100 0.8 1007868
02:00−26сз121794100 0.4 1007809
05:00−26сз121694100 0.8 1008754
08:00−27ссз111593100 0.3 1010672
11:00−27ссз101391100 0.4 1011803
14:00−26ссз101288100 0.1 1012958
17:00−26ссз91288100 0.1 1013944
20:00−29сз71292100 0.0 1016278